Regional Weather Roundup
Issued by NWS Bismarck, ND

Home | Current Version | Previous Version | Text Only | Print | Product List | Glossary On
Versions: 1 2 3 4 5 6 7 8 9 10 11 12 13 14 15 16 17 18 19 20 21 22 23 24 25 26 27 28 29 30 31 32 33 34 35 36 37 38 39 40 41 42 43 44 45 46 47 48 49 50
000
ASUS43 KBIS 230220
RWRBIS

NWR BROADCAST TEXT
NATIONAL WEATHER SERVICE BISMARCK ND
800 PM CST SAT NOV 22 2014

NOTE: "FAIR" INDICATES FEW OR NO CLOUDS BELOW 12,000 FEET WITH NO
SIGNIFICANT WEATHER AND/OR OBSTRUCTIONS TO VISIBILITY.


CITY           SKY/WX    TMP DP  RH WIND       PRES   REMARKS
WILLISTON      PTCLDY    34  30  85 SW8       29.30R
MINOT          CLOUDY    42  31  64 SW14      29.25R
MINOT AFB      CLOUDY    40  33  75 W12       29.24S
BISMARCK       PTCLDY    34  32  92 SW5       29.34F
DICKINSON      PTCLDY    38  33  82 SW12      29.31S
GARRISON         N/A     35  30  82 W8        29.29R
HETTINGER ARPT MOCLDY    37  33  85 S6        29.38S
JAMESTOWN      CLOUDY    34  28  79 S7        29.33F
BEACH          FAIR      39  36  87 W13       29.35S
CROSBY         FAIR      32  30  93 S10       29.23S
HARVEY         FAIR      37  32  81 S9        29.29S
HAZEN          FAIR      34  32  93 CALM      29.33R
LINTON         FAIR      36  32  87 CALM      29.35F
MANDAN         FAIR      36  34  93 S6        29.33S
OAKES            N/A     30  30 100 S8        29.37R
RUGBY          FAIR      36  32  87 S9        29.28R
STANLEY        FAIR      32  32 100 SW5       29.27S
TIOGA          FAIR      34  34 100 SW14      29.29S
$$

CITY           SKY/WX    TMP DP  RH WIND       PRES   REMARKS
GRAND FORKS    CLOUDY    37  30  75 S12       29.37F
GRAND FORKS AF CLOUDY    35  31  86 S15       29.36F
DEVILS LAKE    CLOUDY    36  25  64 SE10      29.29F
FARGO          CLOUDY    35  31  85 S20G31    29.41F
CANDO          CLOUDY    36  28  75 SE16G26   29.28F
CAVALIER       FAIR      32  28  86 S7        29.37F
GRAFTON        FAIR      32  28  86 SE8       29.35F
GWINNER        CLEAR     32  32 100 SE6       29.39F
LANGDON        FAIR      32  28  86 SE14      29.32F
ROLLA          CLOUDY    34  30  86 SW12      29.29R
WALHALLA         N/A     32  32 100 SE8       29.37S
$$

CITY           SKY/WX    TMP DP  RH WIND       PRES   REMARKS
ABERDEEN       CLOUDY    32  29  88 S6        29.39S
MOBRIDGE       CLOUDY    37  31  78 CALM      29.35F
BUFFALO          N/A     40  31  70 W12       29.34R
RAPID CITY     CLOUDY    44  30  57 E3        29.42R
GLASGOW        PTCLDY    39  27  62 W23G32    29.29S
SIDNEY         PTCLDY    37  30  75 SW8       29.34S
WOLF POINT     CLEAR     37  28  70 W9        29.30R
GLENDIVE       CLOUDY    41  30  65 W10       29.36S
MILES CITY     CLOUDY    46  29  51 W17       29.41R
BAKER          CLOUDY    43  32  65 W20G28    29.39R
$$

CITY           SKY/WX    TMP DP  RH WIND       PRES   REMARKS
BILLINGS       PTCLDY    39  17  41 W15       29.52R
GREAT FALLS    PTCLDY    36  18  48 W16       29.52R
REGINA         CLOUDY    36  32  87 S8        29.10F
ESTEVAN        CLEAR     34  28  80 SW9       29.20S
$$




USA.gov is the U.S. government's official web portal to all federal, state and local government web resources and services.